AP893 Weather Reports


time (UTC)temp
C
wind
direction
speed
KPH
gust
KPH
rain 1hr
cm
rain 24hr
cm
rain mn
cm
humidity
%
barometer
mb
20260509042010 16 8 0.0 0.0 0.00 0.00 0.00 69 1018.6
20260509041010 16 8 0.0 0.0 0.00 0.00 0.00 67 1018.5
20260509040010 17 8 0.0 0.0 0.00 0.00 0.00 65 1018.5
20260509033009 18 8 0.0 0.0 0.00 0.00 0.00 57 1018.5
20260509032009 19 8 0.0 0.0 0.00 0.00 0.00 54 1018.5
20260509030009 20 8 0.0 0.0 0.00 0.00 0.00 51 1018.5
20260509025010 20 8 0.0 0.0 0.00 0.00 0.00 50 1018.6
20260509024010 21 8 0.0 0.0 0.00 0.00 0.00 48 1018.6
20260509023011 22 8 0.0 0.0 0.00 0.00 0.00 47 1018.5
20260509022010 22 8 0.0 0.0 0.00 0.00 0.00 46 1018.5
20260509021010 22 8 0.0 0.0 0.00 0.00 0.00 46 1018.5
20260509020010 23 8 0.0 9.7 0.00 0.00 0.00 44 1018.5
20260509015009 23 281 1.6 8.0 0.00 0.00 0.00 43 1018.5
20260509014010 23 291 1.6 11.3 0.00 0.00 0.00 42 1018.6
20260509013010 23 311 0.0 8.0 0.00 0.00 0.00 41 1018.8
20260509012010 24 261 0.0 9.7 0.00 0.00 0.00 40 1018.9
20260509011010 24 342 0.0 12.9 0.00 0.00 0.00 38 1018.8
20260509010009 24 271 0.0 9.7 0.00 0.00 0.00 37 1018.8
20260509005009 24 322 1.6 12.9 0.00 0.00 0.00 36 1018.8
20260509004010 25 317 6.4 14.5 0.00 0.00 0.00 34 1018.9
20260509003010 25 37 0.0 14.5 0.00 0.00 0.00 32 1019.0
20260508235010 26 31 3.2 11.3 0.00 0.00 0.00 26 1019.2
20260508234010 26 333 0.0 0.0 0.00 0.00 0.00 30 1019.1
20260508233010 26 333 1.6 12.9 0.00 0.00 0.00 29 1019.3
20260508232010 26 308 3.2 16.1 0.00 0.00 0.00 31 1019.3
20260508230009 26 322 3.2 11.3 0.00 0.00 0.00 30 1019.6
20260508225009 26 351 3.2 19.3 0.00 0.00 0.00 33 1019.6
20260508223010 27 321 8.0 14.5 0.00 0.00 0.00 31 1019.9
20260508222009 26 256 0.0 11.3 0.00 0.00 0.00 31 1020.0
20260508221011 26 99 1.6 14.5 0.00 0.00 0.00 33 1020.0
20260508220009 26 98 1.6 11.3 0.00 0.00 0.00 32 1020.1
20260508215010 26 260 3.2 12.9 0.00 0.00 0.00 32 1020.2
20260508214009 26 347 4.8 16.1 0.00 0.00 0.00 33 1020.3
20260508213009 26 359 8.0 16.1 0.00 0.00 0.00 30 1020.4
20260508212010 26 311 6.4 20.9 0.00 0.00 0.00 32 1020.4
20260508211010 26 1 9.7 20.9 0.00 0.00 0.00 29 1020.5
20260508204010 26 342 9.7 19.3 0.00 0.00 0.00 30 1020.5
20260508202010 25 350 9.7 19.3 0.00 0.00 0.00 37 1020.5
20260508201011 25 341 11.3 22.5 0.00 0.00 0.00 38 1020.5
20260508200010 25 0 4.8 20.9 0.00 0.00 0.00 38 1020.5
20260508195010 25 338 4.8 14.5 0.00 0.00 0.00 41 1020.5
20260508194009 25 354 4.8 19.3 0.00 0.00 0.00 45 1020.5
20260508192009 25 300 11.3 19.3 0.00 0.00 0.00 44 1020.7
20260508191010 25 11 8.0 20.9 0.00 0.00 0.00 44 1020.6
20260508185009 25 11 0.0 14.5 0.00 0.00 0.00 42 1020.8
20260508184009 25 302 4.8 14.5 0.00 0.00 0.00 41 1020.8
20260508182009 25 322 1.6 11.3 0.00 0.00 0.00 41 1020.8
20260508180009 24 311 4.8 16.1 0.00 0.00 0.00 43 1020.8
20260508175009 24 0 1.6 16.1 0.00 0.00 0.00 43 1020.8
20260508174009 24 2 3.2 14.5 0.00 0.00 0.00 41 1020.7
20260508173009 25 334 8.0 14.5 0.00 0.00 0.00 39 1020.7
20260508172009 24 358 1.6 11.3 0.00 0.00 0.00 37 1020.6
20260508171009 25 340 3.2 12.9 0.00 0.00 0.00 37 1020.7
20260508170009 25 99 0.0 0.0 0.00 0.00 0.00 34 1020.6
20260508165009 24 99 0.0 3.2 0.00 0.00 0.00 37 1020.6
20260508164009 23 160 0.0 0.0 0.00 0.00 0.00 42 1020.5
20260508162009 21 34 1.6 11.3 0.00 0.00 0.00 45 1020.5
20260508161010 20 203 4.8 11.3 0.00 0.00 0.00 46 1020.5
20260508160010 20 123 3.2 11.3 0.00 0.00 0.00 48 1020.5
20260508155009 20 150 4.8 9.7 0.00 0.00 0.00 50 1020.4
20260508154011 19 140 1.6 9.7 0.00 0.00 0.00 55 1020.5
20260508153010 18 136 1.6 9.7 0.00 0.00 0.00 58 1020.4
20260508152009 17 138 0.0 11.3 0.00 0.00 0.00 66 1020.4
20260508151009 16 131 1.6 9.7 0.00 0.00 0.00 74 1020.3
20260508150012 14 154 1.6 8.0 0.00 0.00 0.00 85 1020.2
20260508145010 13 117 3.2 9.7 0.00 0.00 0.00 92 1020.2
20260508144010 12 100 0.0 8.0 0.00 0.00 0.00 100 1020.1
20260508142010 11 110 0.0 11.3 0.00 0.00 0.00 100 1020.1
20260508141010 11 143 0.0 9.7 0.00 0.00 0.00 100 1020.0
20260508140010 11 123 1.6 9.7 0.00 0.00 0.00 100 1020.0
20260508135010 10 162 0.0 0.0 0.00 0.00 0.00 100 1019.9
20260508134010 10 162 0.0 0.0 0.00 0.00 0.00 100 1019.7
20260508133010 10 162 0.0 0.0 0.00 0.00 0.00 100 1019.6
20260508132010 10 162 0.0 0.0 0.00 0.00 0.00 100 1019.6
20260508130009 10 162 0.0 0.0 0.00 0.00 0.00 100 1019.7
20260508125010 10 162 0.0 0.0 0.00 0.00 0.00 100 1019.6
20260508124010 10 162 0.0 0.0 0.00 0.00 0.00 100 1019.6
20260508123010 11 162 0.0 0.0 0.00 0.00 0.00 100 1019.6
20260508122010 11 162 0.0 0.0 0.00 0.00 0.00 100 1019.6
20260508121010 11 162 0.0 0.0 0.00 0.00 0.00 100 1019.5
20260508120011 10 162 0.0 0.0 0.00 0.00 0.00 100 1019.5
20260508115010 11 162 0.0 0.0 0.00 0.00 0.00 100 1019.6
20260508114010 11 162 0.0 0.0 0.00 0.00 0.00 100 1019.7
20260508113009 11 162 0.0 0.0 0.00 0.00 0.00 100 1019.6
20260508112009 11 162 0.0 0.0 0.00 0.00 0.00 100 1019.6
20260508111010 11 162 0.0 0.0 0.00 0.00 0.00 100 1019.5
20260508110010 11 162 0.0 0.0 0.00 0.00 0.00 100 1019.6
20260508105009 11 162 0.0 0.0 0.00 0.00 0.00 100 1019.6
20260508104009 11 162 0.0 0.0 0.00 0.00 0.00 100 1019.6
20260508102009 11 162 0.0 0.0 0.00 0.00 0.00 100 1019.5
20260508101010 11 162 0.0 0.0 0.00 0.00 0.00 100 1019.5
20260508100010 11 162 0.0 0.0 0.00 0.00 0.00 100 1019.5
20260508095010 11 162 0.0 0.0 0.00 0.00 0.00 100 1019.5
20260508094010 11 162 0.0 0.0 0.00 0.00 0.00 100 1019.5
20260508093010 11 162 0.0 0.0 0.00 0.00 0.00 100 1019.4
20260508091009 12 162 0.0 0.0 0.00 0.00 0.00 100 1019.6
20260508090009 12 162 0.0 0.0 0.00 0.00 0.00 100 1019.5
20260508084010 12 162 0.0 0.0 0.00 0.00 0.00 100 1019.5
20260508083010 12 162 0.0 0.0 0.00 0.00 0.00 100 1019.6
20260508082009 12 162 0.0 0.0 0.00 0.00 0.00 100 1019.6
20260508081009 12 162 0.0 0.0 0.00 0.00 0.00 100 1019.9
20260508075009 12 162 0.0 0.0 0.00 0.00 0.00 100 1019.9
20260508074010 12 162 0.0 0.0 0.00 0.00 0.00 100 1019.9
20260508073010 12 162 0.0 0.0 0.00 0.00 0.00 100 1020.1
20260508072009 12 161 3.2 8.0 0.00 0.00 0.00 100 1020.1
20260508071009 12 102 0.0 0.0 0.00 0.00 0.00 100 1020.1
20260508070009 12 102 0.0 0.0 0.00 0.00 0.00 100 1020.1
20260508064009 13 102 0.0 0.0 0.00 0.00 0.00 100 1020.1
20260508062009 13 258 0.0 0.0 0.00 0.00 0.00 100 1020.2
20260508061010 13 258 0.0 0.0 0.00 0.00 0.00 100 1020.3
20260508055010 13 258 0.0 3.2 0.00 0.00 0.00 97 1020.4
20260508054009 14 258 0.0 0.0 0.00 0.00 0.00 95 1020.5
20260508053010 14 258 0.0 0.0 0.00 0.00 0.00 94 1020.4
20260508052009 15 258 0.0 0.0 0.00 0.00 0.00 94 1020.4
20260508051009 15 258 0.0 0.0 0.00 0.00 0.00 93 1020.5
20260508045009 16 258 0.0 0.0 0.00 0.00 0.00 90 1020.5
20260508044009 16 258 0.0 0.0 0.00 0.00 0.00 89 1020.5
20260508043009 16 258 0.0 0.0 0.00 0.00 0.00 87 1020.5